Year,Month,Day,Hour,Minute,Value (Times are PST for temperature in C)
2015,06,29,00,00,20.90
2015,06,29,00,01,20.90
2015,06,29,00,02,20.90
2015,06,29,00,03,20.90
2015,06,29,00,04,20.90
2015,06,29,00,05,20.80
2015,06,29,00,06,20.80
2015,06,29,00,07,20.80
2015,06,29,00,08,20.80
2015,06,29,00,09,20.80
2015,06,29,00,10,20.80
2015,06,29,00,11,20.80
2015,06,29,00,12,20.80
2015,06,29,00,13,20.80
2015,06,29,00,14,20.90
2015,06,29,00,15,20.90
2015,06,29,00,16,20.90
2015,06,29,00,17,20.90
2015,06,29,00,18,20.90
2015,06,29,00,19,20.90
2015,06,29,00,20,20.90
2015,06,29,00,21,20.90
2015,06,29,00,22,20.90
2015,06,29,00,23,20.90
2015,06,29,00,24,20.90
2015,06,29,00,25,20.90
2015,06,29,00,26,20.90
2015,06,29,00,27,20.90
2015,06,29,00,28,20.90
2015,06,29,00,29,20.90
2015,06,29,00,30,21.00
2015,06,29,00,31,21.00
2015,06,29,00,32,21.00
2015,06,29,00,33,21.00
2015,06,29,00,34,21.00
2015,06,29,00,35,21.00
2015,06,29,00,36,21.00
2015,06,29,00,37,21.00
2015,06,29,00,38,21.00
2015,06,29,00,39,21.00
2015,06,29,00,40,21.00
2015,06,29,00,41,21.00
2015,06,29,00,42,21.00
2015,06,29,00,43,21.00
2015,06,29,00,44,21.00
2015,06,29,00,45,21.00
2015,06,29,00,46,21.10
2015,06,29,00,47,21.10
2015,06,29,00,48,21.10
2015,06,29,00,49,21.10
2015,06,29,00,50,21.10
2015,06,29,00,51,21.10
2015,06,29,00,52,21.10
2015,06,29,00,53,21.10
2015,06,29,00,54,21.00
2015,06,29,00,55,21.00
2015,06,29,00,56,21.00
2015,06,29,00,57,21.00
2015,06,29,00,58,21.00
2015,06,29,00,59,21.00
2015,06,29,01,00,21.00
2015,06,29,01,01,21.00
2015,06,29,01,02,21.00
2015,06,29,01,03,20.90
2015,06,29,01,04,20.90
2015,06,29,01,05,20.90
2015,06,29,01,06,20.90
2015,06,29,01,07,20.80
2015,06,29,01,08,20.80
2015,06,29,01,09,20.80
2015,06,29,01,10,20.70
2015,06,29,01,11,20.70
2015,06,29,01,12,20.70
2015,06,29,01,13,20.60
2015,06,29,01,14,20.60
2015,06,29,01,15,20.60
2015,06,29,01,16,20.60
2015,06,29,01,17,20.60
2015,06,29,01,18,20.60
2015,06,29,01,19,20.60
2015,06,29,01,20,20.60
2015,06,29,01,21,20.60
2015,06,29,01,22,20.60
2015,06,29,01,23,20.60
2015,06,29,01,24,20.60
2015,06,29,01,25,20.60
2015,06,29,01,26,20.70
2015,06,29,01,27,20.70
2015,06,29,01,28,20.70
2015,06,29,01,29,20.70
2015,06,29,01,30,20.70
2015,06,29,01,31,20.80
2015,06,29,01,32,20.80
2015,06,29,01,33,20.90
2015,06,29,01,34,20.90
2015,06,29,01,35,20.90
2015,06,29,01,36,21.00
2015,06,29,01,37,21.00
2015,06,29,01,38,21.00
2015,06,29,01,39,21.00
2015,06,29,01,40,21.00
2015,06,29,01,41,21.00
2015,06,29,01,42,21.00
2015,06,29,01,43,21.00
2015,06,29,01,44,21.00
2015,06,29,01,45,20.90
2015,06,29,01,46,20.90
2015,06,29,01,47,20.90
2015,06,29,01,48,20.90
2015,06,29,01,49,20.80
2015,06,29,01,50,20.90
2015,06,29,01,51,20.90
2015,06,29,01,52,20.90
2015,06,29,01,53,20.90
2015,06,29,01,54,21.00
2015,06,29,01,55,21.00
2015,06,29,01,56,21.00
2015,06,29,01,57,21.10
2015,06,29,01,58,21.10
2015,06,29,01,59,21.10
2015,06,29,02,00,21.10
2015,06,29,02,01,21.20
2015,06,29,02,02,21.20
2015,06,29,02,03,21.20
2015,06,29,02,04,21.20
2015,06,29,02,05,21.20
2015,06,29,02,06,21.20
2015,06,29,02,07,21.10
2015,06,29,02,08,21.10
2015,06,29,02,09,21.10
2015,06,29,02,10,21.10
2015,06,29,02,11,21.10
2015,06,29,02,12,21.10
2015,06,29,02,13,21.10
2015,06,29,02,14,21.00
2015,06,29,02,15,21.00
2015,06,29,02,16,21.00
2015,06,29,02,17,21.00
2015,06,29,02,18,21.00
2015,06,29,02,19,21.00
2015,06,29,02,20,21.00
2015,06,29,02,21,21.00
2015,06,29,02,22,21.00
2015,06,29,02,23,20.90
2015,06,29,02,24,20.90
2015,06,29,02,25,20.90
2015,06,29,02,26,20.80
2015,06,29,02,27,20.80
2015,06,29,02,28,20.70
2015,06,29,02,29,20.70
2015,06,29,02,30,20.70
2015,06,29,02,31,20.70
2015,06,29,02,32,20.70
2015,06,29,02,33,20.60
2015,06,29,02,34,20.60
2015,06,29,02,35,20.60
2015,06,29,02,36,20.60
2015,06,29,02,37,20.50
2015,06,29,02,38,20.50
2015,06,29,02,39,20.50
2015,06,29,02,40,20.50
2015,06,29,02,41,20.40
2015,06,29,02,42,20.40
2015,06,29,02,43,20.40
2015,06,29,02,44,20.30
2015,06,29,02,45,20.30
2015,06,29,02,46,20.30
2015,06,29,02,47,20.30
2015,06,29,02,48,20.30
2015,06,29,02,49,20.30
2015,06,29,02,50,20.30
2015,06,29,02,51,20.30
2015,06,29,02,52,20.30
2015,06,29,02,53,20.30
2015,06,29,02,54,20.30
2015,06,29,02,55,20.30
2015,06,29,02,56,20.30
2015,06,29,02,57,20.30
2015,06,29,02,58,20.30
2015,06,29,02,59,20.40
2015,06,29,03,00,20.40
2015,06,29,03,01,20.40
2015,06,29,03,02,20.40
2015,06,29,03,03,20.50
2015,06,29,03,04,20.50
2015,06,29,03,05,20.50
2015,06,29,03,06,20.50
2015,06,29,03,07,20.50
2015,06,29,03,08,20.60
2015,06,29,03,09,20.60
2015,06,29,03,10,20.60
2015,06,29,03,11,20.60
2015,06,29,03,12,20.60
2015,06,29,03,13,20.60
2015,06,29,03,14,20.60
2015,06,29,03,15,20.70
2015,06,29,03,16,20.70
2015,06,29,03,17,20.70
2015,06,29,03,18,20.70
2015,06,29,03,19,20.70
2015,06,29,03,20,20.60
2015,06,29,03,21,20.60
2015,06,29,03,22,20.60
2015,06,29,03,23,20.60
2015,06,29,03,24,20.60
2015,06,29,03,25,20.60
2015,06,29,03,26,20.60
2015,06,29,03,27,20.60
2015,06,29,03,28,20.60
2015,06,29,03,29,20.70
2015,06,29,03,30,20.70
2015,06,29,03,31,20.80
2015,06,29,03,32,20.80
2015,06,29,03,33,20.80
2015,06,29,03,34,20.80
2015,06,29,03,35,20.80
2015,06,29,03,36,20.80
2015,06,29,03,37,20.90
2015,06,29,03,38,20.90
2015,06,29,03,39,20.90
2015,06,29,03,40,20.90
2015,06,29,03,41,20.90
2015,06,29,03,42,20.90
2015,06,29,03,43,20.90
2015,06,29,03,44,20.90
2015,06,29,03,45,20.90
2015,06,29,03,46,20.90
2015,06,29,03,47,20.90
2015,06,29,03,48,20.90
2015,06,29,03,49,20.90
2015,06,29,03,50,20.80
2015,06,29,03,51,20.80
2015,06,29,03,52,20.80
2015,06,29,03,53,20.70
2015,06,29,03,54,20.70
2015,06,29,03,55,20.70
2015,06,29,03,56,20.70
2015,06,29,03,57,20.70
2015,06,29,03,58,20.70
2015,06,29,03,59,20.70
2015,06,29,04,00,20.60
2015,06,29,04,01,20.60
2015,06,29,04,02,20.60
2015,06,29,04,03,20.60
2015,06,29,04,04,20.60
2015,06,29,04,05,20.60
2015,06,29,04,06,20.60
2015,06,29,04,07,20.70
2015,06,29,04,08,20.70
2015,06,29,04,09,20.80
2015,06,29,04,10,20.80
2015,06,29,04,11,20.80
2015,06,29,04,12,20.90
2015,06,29,04,13,20.90
2015,06,29,04,14,20.90
2015,06,29,04,15,20.90
2015,06,29,04,16,20.90
2015,06,29,04,17,20.90
2015,06,29,04,18,20.90
2015,06,29,04,19,20.90
2015,06,29,04,20,21.00
2015,06,29,04,21,21.00
2015,06,29,04,22,21.00
2015,06,29,04,23,21.00
2015,06,29,04,24,21.00
2015,06,29,04,25,21.00
2015,06,29,04,26,21.00
2015,06,29,04,27,21.00
2015,06,29,04,28,21.00
2015,06,29,04,29,21.00
2015,06,29,04,30,21.00
2015,06,29,04,31,21.00
2015,06,29,04,32,21.00
2015,06,29,04,33,21.00
2015,06,29,04,34,21.00
2015,06,29,04,35,21.00
2015,06,29,04,36,21.00
2015,06,29,04,37,21.00
2015,06,29,04,38,21.00
2015,06,29,04,39,21.00
2015,06,29,04,40,21.10
2015,06,29,04,41,21.10
2015,06,29,04,42,21.10
2015,06,29,04,43,21.10
2015,06,29,04,44,21.00
2015,06,29,04,45,21.00
2015,06,29,04,46,21.00
2015,06,29,04,47,21.00
2015,06,29,04,48,20.90
2015,06,29,04,49,20.90
2015,06,29,04,50,20.80
2015,06,29,04,51,20.80
2015,06,29,04,52,20.70
2015,06,29,04,53,20.70
2015,06,29,04,54,20.60
2015,06,29,04,55,20.50
2015,06,29,04,56,20.50
2015,06,29,04,57,20.50
2015,06,29,04,58,20.40
2015,06,29,04,59,20.30
2015,06,29,05,00,20.30
2015,06,29,05,01,20.20
2015,06,29,05,02,20.20
2015,06,29,05,03,20.20
2015,06,29,05,04,20.20
2015,06,29,05,05,20.20
2015,06,29,05,06,20.20
2015,06,29,05,07,20.20
2015,06,29,05,08,20.20
2015,06,29,05,09,20.20
2015,06,29,05,10,20.20
2015,06,29,05,11,20.10
2015,06,29,05,12,20.10
2015,06,29,05,13,20.10
2015,06,29,05,14,20.10
2015,06,29,05,15,20.10
2015,06,29,05,16,20.10
2015,06,29,05,17,20.10
2015,06,29,05,18,20.10
2015,06,29,05,19,20.10
2015,06,29,05,20,20.20
2015,06,29,05,21,20.20
2015,06,29,05,22,20.20
2015,06,29,05,23,20.20
2015,06,29,05,24,20.20
2015,06,29,05,25,20.20
2015,06,29,05,26,20.20
2015,06,29,05,27,20.20
2015,06,29,05,28,20.20
2015,06,29,05,29,20.20
2015,06,29,05,30,20.20
2015,06,29,05,31,20.20
2015,06,29,05,32,20.20
2015,06,29,05,33,20.20
2015,06,29,05,34,20.20
2015,06,29,05,35,20.20
2015,06,29,05,36,20.20
2015,06,29,05,37,20.10
2015,06,29,05,38,20.10
2015,06,29,05,39,20.10
2015,06,29,05,40,20.10
2015,06,29,05,41,19.90
2015,06,29,05,42,19.90
2015,06,29,05,43,19.90
2015,06,29,05,44,19.90
2015,06,29,05,45,19.90
2015,06,29,05,46,19.80
2015,06,29,05,47,19.80
2015,06,29,05,48,19.80
2015,06,29,05,49,19.80
2015,06,29,05,50,19.70
2015,06,29,05,51,19.70
2015,06,29,05,52,19.70
2015,06,29,05,53,19.60
2015,06,29,05,54,19.60
2015,06,29,05,55,19.60
2015,06,29,05,56,19.50
2015,06,29,05,57,19.50
2015,06,29,05,58,19.50
2015,06,29,05,59,19.50
2015,06,29,06,00,19.50
2015,06,29,06,01,19.50
2015,06,29,06,02,19.50
2015,06,29,06,03,19.50
2015,06,29,06,04,19.50
2015,06,29,06,05,19.50
2015,06,29,06,06,19.50
2015,06,29,06,07,19.50
2015,06,29,06,08,19.50
2015,06,29,06,09,19.50
2015,06,29,06,10,19.50
2015,06,29,06,11,19.40
2015,06,29,06,12,19.40
2015,06,29,06,13,19.40
2015,06,29,06,14,19.40
2015,06,29,06,15,19.50
2015,06,29,06,16,19.50
2015,06,29,06,17,19.50
2015,06,29,06,18,19.50
2015,06,29,06,19,19.50
2015,06,29,06,20,19.50
2015,06,29,06,21,19.50
2015,06,29,06,22,19.50
2015,06,29,06,23,19.50
2015,06,29,06,24,19.50
2015,06,29,06,25,19.40
2015,06,29,06,26,19.40
2015,06,29,06,27,19.40
2015,06,29,06,28,19.40
2015,06,29,06,29,19.30
2015,06,29,06,30,19.30
2015,06,29,06,31,19.30
2015,06,29,06,32,19.30
2015,06,29,06,33,19.30
2015,06,29,06,34,19.30
2015,06,29,06,35,19.30
2015,06,29,06,36,19.30
2015,06,29,06,37,19.30
2015,06,29,06,38,19.30
2015,06,29,06,39,19.30
2015,06,29,06,40,19.30
2015,06,29,06,41,19.30
2015,06,29,06,42,19.40
2015,06,29,06,43,19.40
2015,06,29,06,44,19.50
2015,06,29,06,45,19.50
2015,06,29,06,46,19.60
2015,06,29,06,47,19.60
2015,06,29,06,48,19.60
2015,06,29,06,49,19.60
2015,06,29,06,50,19.70
2015,06,29,06,51,19.70
2015,06,29,06,52,19.70
2015,06,29,06,53,19.80
2015,06,29,06,54,19.80
2015,06,29,06,55,19.90
2015,06,29,06,56,19.90
2015,06,29,06,57,19.90
2015,06,29,06,58,19.90
2015,06,29,06,59,19.90
2015,06,29,07,00,20.00
2015,06,29,07,01,20.10
2015,06,29,07,02,20.10
2015,06,29,07,03,20.10
2015,06,29,07,04,20.10
2015,06,29,07,05,20.20
2015,06,29,07,06,20.20
2015,06,29,07,07,20.20
2015,06,29,07,08,20.20
2015,06,29,07,09,20.20
2015,06,29,07,10,20.20
2015,06,29,07,11,20.20
2015,06,29,07,12,20.20
2015,06,29,07,13,20.20
2015,06,29,07,14,20.20
2015,06,29,07,15,20.20
2015,06,29,07,16,20.20
2015,06,29,07,17,20.20
2015,06,29,07,18,20.20
2015,06,29,07,19,20.20
2015,06,29,07,20,20.20
2015,06,29,07,21,20.20
2015,06,29,07,22,20.20
2015,06,29,07,23,20.20
2015,06,29,07,24,20.30
2015,06,29,07,25,20.30
2015,06,29,07,26,20.30
2015,06,29,07,27,20.40
2015,06,29,07,28,20.40
2015,06,29,07,29,20.50
2015,06,29,07,30,20.50
2015,06,29,07,31,20.60
2015,06,29,07,32,20.60
2015,06,29,07,33,20.70
2015,06,29,07,34,20.70
2015,06,29,07,35,20.70
2015,06,29,07,36,20.80
2015,06,29,07,37,20.80
2015,06,29,07,38,20.90
2015,06,29,07,39,20.90
2015,06,29,07,40,21.00
2015,06,29,07,41,21.00
2015,06,29,07,42,21.10
2015,06,29,07,43,21.10
2015,06,29,07,44,21.20
2015,06,29,07,45,21.30
2015,06,29,07,46,21.30
2015,06,29,07,47,21.30
2015,06,29,07,48,21.40
2015,06,29,07,49,21.50
2015,06,29,07,50,21.60
2015,06,29,07,51,21.60
2015,06,29,07,52,21.70
2015,06,29,07,53,21.80
2015,06,29,07,54,21.80
2015,06,29,07,55,21.90
2015,06,29,07,56,21.90
2015,06,29,07,57,22.00
2015,06,29,07,58,22.00
2015,06,29,07,59,22.00
2015,06,29,08,00,22.10
2015,06,29,08,01,22.10
2015,06,29,08,02,22.20
2015,06,29,08,03,22.30
2015,06,29,08,04,22.30
2015,06,29,08,05,22.40
2015,06,29,08,06,22.40
2015,06,29,08,07,22.50
2015,06,29,08,08,22.60
2015,06,29,08,09,22.60
2015,06,29,08,10,22.70
2015,06,29,08,11,22.70
2015,06,29,08,12,22.80
2015,06,29,08,13,22.80
2015,06,29,08,14,22.90
2015,06,29,08,15,22.90
2015,06,29,08,16,22.90
2015,06,29,08,17,22.90
2015,06,29,08,18,22.90
2015,06,29,08,19,22.90
2015,06,29,08,20,22.90
2015,06,29,08,21,23.00
2015,06,29,08,22,23.10
2015,06,29,08,23,23.10
2015,06,29,08,24,23.10
2015,06,29,08,25,23.10
2015,06,29,08,26,23.10
2015,06,29,08,27,23.10
2015,06,29,08,28,23.10
2015,06,29,08,29,23.10
2015,06,29,08,30,23.10
2015,06,29,08,31,23.10
2015,06,29,08,32,23.10
2015,06,29,08,33,23.20
2015,06,29,08,34,23.20
2015,06,29,08,35,23.30
2015,06,29,08,36,23.30
2015,06,29,08,37,23.30
2015,06,29,08,38,23.30
2015,06,29,08,39,23.30
2015,06,29,08,40,23.40
2015,06,29,08,41,23.40
2015,06,29,08,42,23.40
2015,06,29,08,43,23.40
2015,06,29,08,44,23.40
2015,06,29,08,45,23.40
2015,06,29,08,46,23.40
2015,06,29,08,47,23.40
2015,06,29,08,48,23.60
2015,06,29,08,49,23.60
2015,06,29,08,50,23.60
2015,06,29,08,51,23.70
2015,06,29,08,52,23.70
2015,06,29,08,53,23.80
2015,06,29,08,54,23.80
2015,06,29,08,55,23.80
2015,06,29,08,56,23.70
2015,06,29,08,57,23.70
2015,06,29,08,58,23.70
2015,06,29,08,59,23.70
2015,06,29,09,00,23.70
2015,06,29,09,01,23.70
2015,06,29,09,02,23.70
2015,06,29,09,03,23.70
2015,06,29,09,04,23.70
2015,06,29,09,05,23.60
2015,06,29,09,06,23.60
2015,06,29,09,07,23.60
2015,06,29,09,08,23.50
2015,06,29,09,09,23.40
2015,06,29,09,10,23.40
2015,06,29,09,11,23.50
2015,06,29,09,12,23.60
2015,06,29,09,13,23.70
2015,06,29,09,14,23.70
2015,06,29,09,15,23.70
2015,06,29,09,16,23.70
2015,06,29,09,17,23.80
2015,06,29,09,18,23.80
2015,06,29,09,19,23.90
2015,06,29,09,20,24.00
2015,06,29,09,21,24.10
2015,06,29,09,22,24.10
2015,06,29,09,23,24.10
2015,06,29,09,24,24.10
2015,06,29,09,25,24.20
2015,06,29,09,26,24.30
2015,06,29,09,27,24.20
2015,06,29,09,28,24.20
2015,06,29,09,29,24.10
2015,06,29,09,30,24.10
2015,06,29,09,31,24.00
2015,06,29,09,32,23.90
2015,06,29,09,33,23.90
2015,06,29,09,34,23.90
2015,06,29,09,35,24.00
2015,06,29,09,36,24.10
2015,06,29,09,37,24.10
2015,06,29,09,38,24.20
2015,06,29,09,39,24.20
2015,06,29,09,40,24.30
2015,06,29,09,41,24.40
2015,06,29,09,42,24.50
2015,06,29,09,43,24.60
2015,06,29,09,44,24.70
2015,06,29,09,45,24.70
2015,06,29,09,46,24.70
2015,06,29,09,47,24.70
2015,06,29,09,48,24.70
2015,06,29,09,49,24.70
2015,06,29,09,50,24.70
2015,06,29,09,51,24.80
2015,06,29,09,52,24.80
2015,06,29,09,53,24.80
2015,06,29,09,54,24.80
2015,06,29,09,55,24.70
2015,06,29,09,56,24.70
2015,06,29,09,57,24.80
2015,06,29,09,58,24.90
2015,06,29,09,59,24.90
2015,06,29,10,00,25.00
2015,06,29,10,01,25.00
2015,06,29,10,02,25.00
2015,06,29,10,03,25.10
2015,06,29,10,04,25.10
2015,06,29,10,05,25.00
2015,06,29,10,06,25.00
2015,06,29,10,07,25.00
2015,06,29,10,08,25.00
2015,06,29,10,09,25.00
2015,06,29,10,10,25.00
2015,06,29,10,11,25.00
2015,06,29,10,12,25.00
2015,06,29,10,13,25.00
2015,06,29,10,14,25.00
2015,06,29,10,15,25.00
2015,06,29,10,16,25.00
2015,06,29,10,17,25.00
2015,06,29,10,18,25.00
2015,06,29,10,19,25.00
2015,06,29,10,20,25.00
2015,06,29,10,21,25.00
2015,06,29,10,22,25.00
2015,06,29,10,23,25.00
2015,06,29,10,24,25.00
2015,06,29,10,25,25.10
2015,06,29,10,26,25.20
2015,06,29,10,27,25.20
2015,06,29,10,28,25.20
2015,06,29,10,29,25.20
2015,06,29,10,30,25.30
2015,06,29,10,31,25.30
2015,06,29,10,32,25.30
2015,06,29,10,33,25.30
2015,06,29,10,34,25.30
2015,06,29,10,35,25.30
2015,06,29,10,36,25.40
2015,06,29,10,37,25.40
2015,06,29,10,38,25.50
2015,06,29,10,39,25.60
2015,06,29,10,40,25.70
2015,06,29,10,41,25.80
2015,06,29,10,42,25.80
2015,06,29,10,43,25.80
2015,06,29,10,44,25.90
2015,06,29,10,45,25.90
2015,06,29,10,46,25.90
2015,06,29,10,47,26.00
2015,06,29,10,48,26.00
2015,06,29,10,49,26.10
2015,06,29,10,50,26.20
2015,06,29,10,51,26.30
2015,06,29,10,52,26.40
2015,06,29,10,53,26.40
2015,06,29,10,54,26.40
2015,06,29,10,55,26.30
2015,06,29,10,56,26.20
2015,06,29,10,57,26.10
2015,06,29,10,58,26.10
2015,06,29,10,59,26.10
2015,06,29,11,00,26.20
2015,06,29,11,01,26.20
2015,06,29,11,02,26.20
2015,06,29,11,03,26.20
2015,06,29,11,04,26.20
2015,06,29,11,05,26.20
2015,06,29,11,06,26.20
2015,06,29,11,07,26.20
2015,06,29,11,08,26.20
2015,06,29,11,09,26.30
2015,06,29,11,10,26.40
2015,06,29,11,11,26.50
2015,06,29,11,12,26.60
2015,06,29,11,13,26.70
2015,06,29,11,14,26.80
2015,06,29,11,15,26.90
2015,06,29,11,16,26.90
2015,06,29,11,17,26.90
2015,06,29,11,18,26.70
2015,06,29,11,19,26.60
2015,06,29,11,20,26.60
2015,06,29,11,21,26.60
2015,06,29,11,22,26.60
2015,06,29,11,23,26.60
2015,06,29,11,24,26.70
2015,06,29,11,25,26.80
2015,06,29,11,26,26.80
2015,06,29,11,27,26.80
2015,06,29,11,28,26.80
2015,06,29,11,29,26.80
2015,06,29,11,30,26.70
2015,06,29,11,31,26.70
2015,06,29,11,32,26.70
2015,06,29,11,33,26.60
2015,06,29,11,34,26.50
2015,06,29,11,35,26.40
2015,06,29,11,36,26.40
2015,06,29,11,37,26.50
2015,06,29,11,38,26.60
2015,06,29,11,39,26.60
2015,06,29,11,40,26.60
2015,06,29,11,41,26.60
2015,06,29,11,42,26.60
2015,06,29,11,43,26.70
2015,06,29,11,44,26.70
2015,06,29,11,45,26.70
2015,06,29,11,46,26.70
2015,06,29,11,47,26.70
2015,06,29,11,48,26.80
2015,06,29,11,49,26.90
2015,06,29,11,50,26.90
2015,06,29,11,51,26.90
2015,06,29,11,52,26.80
2015,06,29,11,53,26.60
2015,06,29,11,54,26.50
2015,06,29,11,55,26.40
2015,06,29,11,56,26.30
2015,06,29,11,57,26.40
2015,06,29,11,58,26.40
2015,06,29,11,59,26.40
2015,06,29,12,00,26.50
2015,06,29,12,01,26.60
2015,06,29,12,02,26.60
2015,06,29,12,03,26.60
2015,06,29,12,04,26.60
2015,06,29,12,05,26.60
2015,06,29,12,06,26.50
2015,06,29,12,07,26.40
2015,06,29,12,08,26.40
2015,06,29,12,09,26.40
2015,06,29,12,10,26.50
2015,06,29,12,11,26.60
2015,06,29,12,12,26.60
2015,06,29,12,13,26.60
2015,06,29,12,14,26.60
2015,06,29,12,15,26.60
2015,06,29,12,16,26.60
2015,06,29,12,17,26.70
2015,06,29,12,18,26.80
2015,06,29,12,19,26.80
2015,06,29,12,20,26.80
2015,06,29,12,21,26.80
2015,06,29,12,22,26.80
2015,06,29,12,23,26.80
2015,06,29,12,24,26.80
2015,06,29,12,25,26.90
2015,06,29,12,26,26.90
2015,06,29,12,27,27.00
2015,06,29,12,28,27.10
2015,06,29,12,29,27.10
2015,06,29,12,30,27.20
2015,06,29,12,31,27.30
2015,06,29,12,32,27.40
2015,06,29,12,33,27.40
2015,06,29,12,34,27.40
2015,06,29,12,35,27.40
2015,06,29,12,36,27.40
2015,06,29,12,37,27.30
2015,06,29,12,38,27.30
2015,06,29,12,39,27.30
2015,06,29,12,40,27.30
2015,06,29,12,41,27.20
2015,06,29,12,42,27.20
2015,06,29,12,43,27.10
2015,06,29,12,44,27.00
2015,06,29,12,45,26.90
2015,06,29,12,46,27.10
2015,06,29,12,47,27.10
2015,06,29,12,48,27.00
2015,06,29,12,49,26.90
2015,06,29,12,50,26.80
2015,06,29,12,51,26.80
2015,06,29,12,52,26.80
2015,06,29,12,53,26.80
2015,06,29,12,54,26.80
2015,06,29,12,55,26.90
2015,06,29,12,56,26.90
2015,06,29,12,57,26.90
2015,06,29,12,58,27.00
2015,06,29,12,59,27.10
2015,06,29,13,00,27.10
2015,06,29,13,01,27.20
2015,06,29,13,02,27.30
2015,06,29,13,03,27.30
2015,06,29,13,04,27.30
2015,06,29,13,05,27.30
2015,06,29,13,06,27.40
2015,06,29,13,07,27.50
2015,06,29,13,08,27.60
2015,06,29,13,09,27.60
2015,06,29,13,10,27.70
2015,06,29,13,11,27.70
2015,06,29,13,12,27.60
2015,06,29,13,13,27.50
2015,06,29,13,14,27.30
2015,06,29,13,15,27.30
2015,06,29,13,16,27.20
2015,06,29,13,17,27.10
2015,06,29,13,18,26.90
2015,06,29,13,19,26.70
2015,06,29,13,20,26.70
2015,06,29,13,21,26.60
2015,06,29,13,22,26.70
2015,06,29,13,23,26.80
2015,06,29,13,24,26.80
2015,06,29,13,25,26.90
2015,06,29,13,26,27.00
2015,06,29,13,27,27.10
2015,06,29,13,28,27.20
2015,06,29,13,29,27.30
2015,06,29,13,30,27.40
2015,06,29,13,31,27.40
2015,06,29,13,32,27.50
2015,06,29,13,33,27.60
2015,06,29,13,34,27.40
2015,06,29,13,35,27.40
2015,06,29,13,36,27.40
2015,06,29,13,37,27.40
2015,06,29,13,38,27.50
2015,06,29,13,39,27.60
2015,06,29,13,40,27.70
2015,06,29,13,41,27.70
2015,06,29,13,42,27.80
2015,06,29,13,43,27.70
2015,06,29,13,44,27.70
2015,06,29,13,45,27.70
2015,06,29,13,46,27.80
2015,06,29,13,47,27.80
2015,06,29,13,48,27.80
2015,06,29,13,49,27.90
2015,06,29,13,50,28.00
2015,06,29,13,51,28.10
2015,06,29,13,52,28.10
2015,06,29,13,53,28.00
2015,06,29,13,54,28.00
2015,06,29,13,55,28.00
2015,06,29,13,56,28.00
2015,06,29,13,57,28.10
2015,06,29,13,58,28.00
2015,06,29,13,59,28.00
2015,06,29,14,00,27.90
2015,06,29,14,01,27.90
2015,06,29,14,02,27.90
2015,06,29,14,03,27.90
2015,06,29,14,04,28.00
2015,06,29,14,05,28.00
2015,06,29,14,06,27.90
2015,06,29,14,07,27.90
2015,06,29,14,08,27.90
2015,06,29,14,09,27.80
2015,06,29,14,10,27.80
2015,06,29,14,11,27.70
2015,06,29,14,12,27.60
2015,06,29,14,13,27.60
2015,06,29,14,14,27.50
2015,06,29,14,15,27.40
2015,06,29,14,16,27.40
2015,06,29,14,17,27.50
2015,06,29,14,18,27.60
2015,06,29,14,19,27.70
2015,06,29,14,20,27.80
2015,06,29,14,21,27.70
2015,06,29,14,22,27.70
2015,06,29,14,23,27.60
2015,06,29,14,24,27.60
2015,06,29,14,25,27.70
2015,06,29,14,26,27.80
2015,06,29,14,27,27.80
2015,06,29,14,28,27.80
2015,06,29,14,29,27.90
2015,06,29,14,30,27.90
2015,06,29,14,31,27.90
2015,06,29,14,32,28.00
2015,06,29,14,33,28.00
2015,06,29,14,34,28.00
2015,06,29,14,35,27.90
2015,06,29,14,36,27.90
2015,06,29,14,37,27.80
2015,06,29,14,38,27.70
2015,06,29,14,39,27.70
2015,06,29,14,40,27.70
2015,06,29,14,41,27.70
2015,06,29,14,42,27.70
2015,06,29,14,43,27.80
2015,06,29,14,44,27.90
2015,06,29,14,45,27.90
2015,06,29,14,46,27.90
2015,06,29,14,47,27.90
2015,06,29,14,48,27.90
2015,06,29,14,49,27.80
2015,06,29,14,50,27.90
2015,06,29,14,51,27.90
2015,06,29,14,52,27.90
2015,06,29,14,53,28.00
2015,06,29,14,54,28.00
2015,06,29,14,55,28.00
2015,06,29,14,56,27.90
2015,06,29,14,57,27.90
2015,06,29,14,58,27.90
2015,06,29,14,59,28.00
2015,06,29,15,00,28.00
2015,06,29,15,01,28.10
2015,06,29,15,02,28.20
2015,06,29,15,03,28.20
2015,06,29,15,04,28.10
2015,06,29,15,05,28.10
2015,06,29,15,06,28.00
2015,06,29,15,07,27.90
2015,06,29,15,08,27.90
2015,06,29,15,09,27.80
2015,06,29,15,10,27.80
2015,06,29,15,11,27.80
2015,06,29,15,12,27.80
2015,06,29,15,13,27.80
2015,06,29,15,14,27.80
2015,06,29,15,15,27.70
2015,06,29,15,16,27.70
2015,06,29,15,17,27.70
2015,06,29,15,18,27.80
2015,06,29,15,19,27.90
2015,06,29,15,20,28.00
2015,06,29,15,21,28.10
2015,06,29,15,22,28.20
2015,06,29,15,23,28.30
2015,06,29,15,24,28.30
2015,06,29,15,25,28.30
2015,06,29,15,26,28.30
2015,06,29,15,27,28.30
2015,06,29,15,28,28.30
2015,06,29,15,29,28.20
2015,06,29,15,30,28.20
2015,06,29,15,31,28.30
2015,06,29,15,32,28.30
2015,06,29,15,33,28.30
2015,06,29,15,34,28.30
2015,06,29,15,35,28.30
2015,06,29,15,36,28.30
2015,06,29,15,37,28.20
2015,06,29,15,38,28.20
2015,06,29,15,39,28.20
2015,06,29,15,40,28.10
2015,06,29,15,41,28.20
2015,06,29,15,42,28.20
2015,06,29,15,43,28.20
2015,06,29,15,44,28.20
2015,06,29,15,45,28.30
2015,06,29,15,46,28.30
2015,06,29,15,47,28.40
2015,06,29,15,48,28.40
2015,06,29,15,49,28.40
2015,06,29,15,50,28.40
2015,06,29,15,51,28.30
2015,06,29,15,52,28.30
2015,06,29,15,53,28.20
2015,06,29,15,54,28.20
2015,06,29,15,55,28.20
2015,06,29,15,56,28.10
2015,06,29,15,57,28.10
2015,06,29,15,58,28.10
2015,06,29,15,59,28.10
2015,06,29,16,00,28.00
2015,06,29,16,01,28.00
2015,06,29,16,02,28.00
2015,06,29,16,03,28.00
2015,06,29,16,04,27.90
2015,06,29,16,05,27.90
2015,06,29,16,06,27.90
2015,06,29,16,07,27.90
2015,06,29,16,08,27.70
2015,06,29,16,09,27.70
2015,06,29,16,10,27.60
2015,06,29,16,11,27.50
2015,06,29,16,12,27.40
2015,06,29,16,13,27.40
2015,06,29,16,14,27.30
2015,06,29,16,15,27.30
2015,06,29,16,16,27.30
2015,06,29,16,17,27.30
2015,06,29,16,18,27.20
2015,06,29,16,19,27.10
2015,06,29,16,20,26.90
2015,06,29,16,21,26.90
2015,06,29,16,22,26.80
2015,06,29,16,23,26.80
2015,06,29,16,24,26.70
2015,06,29,16,25,26.70
2015,06,29,16,26,26.60
2015,06,29,16,27,26.60
2015,06,29,16,28,26.60
2015,06,29,16,29,26.50
2015,06,29,16,30,26.50
2015,06,29,16,31,26.60
2015,06,29,16,32,26.60
2015,06,29,16,33,26.70
2015,06,29,16,34,26.70
2015,06,29,16,35,26.70
2015,06,29,16,36,26.70
2015,06,29,16,37,26.80
2015,06,29,16,38,26.90
2015,06,29,16,39,27.00
2015,06,29,16,40,27.10
2015,06,29,16,41,27.20
2015,06,29,16,42,27.20
2015,06,29,16,43,27.30
2015,06,29,16,44,27.30
2015,06,29,16,45,27.30
2015,06,29,16,46,27.30
2015,06,29,16,47,27.30
2015,06,29,16,48,27.30
2015,06,29,16,49,27.30
2015,06,29,16,50,27.30
2015,06,29,16,51,27.30
2015,06,29,16,52,27.30
2015,06,29,16,53,27.20
2015,06,29,16,54,27.20
2015,06,29,16,55,27.10
2015,06,29,16,56,27.10
2015,06,29,16,57,27.10
2015,06,29,16,58,27.10
2015,06,29,16,59,27.10
2015,06,29,17,00,27.10
2015,06,29,17,01,27.10
2015,06,29,17,02,27.10
2015,06,29,17,03,27.20
2015,06,29,17,04,27.20
2015,06,29,17,05,27.20
2015,06,29,17,06,27.30
2015,06,29,17,07,27.30
2015,06,29,17,08,27.30
2015,06,29,17,09,27.30
2015,06,29,17,10,27.30
2015,06,29,17,11,27.30
2015,06,29,17,12,27.30
2015,06,29,17,13,27.20
2015,06,29,17,14,27.20
2015,06,29,17,15,27.20
2015,06,29,17,16,27.20
2015,06,29,17,17,27.20
2015,06,29,17,18,27.20
2015,06,29,17,19,27.20